This is the latest recevied weather packets stored in our database for station/object LU8AQL-WX. If no packets are shown the sender has not sent any weather packets the latest 10 day(s).
| Time | Temp. | Humidity | Pressure | Rain* | Wind** | Luminosity | Snow |
|---|---|---|---|---|---|---|---|
| 1777404959 | 18.89° C | 48% | 1013 hPa | 0 mm | - | - | - |
| 1777404358 | 19.44° C | 48% | 1013 hPa | 0 mm | - | - | - |
| 1777403757 | 19.44° C | 47% | 1013 hPa | 0 mm | - | - | - |
| 1777403155 | 19.44° C | 46% | 1013 hPa | 0 mm | - | - | - |
| 1777402554 | 19.44° C | 46% | 1013 hPa | 0 mm | - | - | - |
| 1777401953 | 19.44° C | 47% | 1013 hPa | 0 mm | - | - | - |
| 1777401352 | 18.89° C | 44% | 1013 hPa | 0 mm | - | - | - |
| 1777400751 | 19.44° C | 45% | 1014 hPa | 0 mm | - | - | - |
| 1777400150 | 18.89° C | 46% | 1014 hPa | 0 mm | - | - | - |
| 1777399547 | 18.89° C | 47% | 1014 hPa | 0 mm | - | - | - |
| 1777398946 | 18.89° C | 46% | 1014 hPa | 0 mm | - | - | - |
| 1777398345 | 18.89° C | 45% | 1014 hPa | 0 mm | - | - | - |
| 1777397744 | 18.89° C | 47% | 1014 hPa | 0 mm | - | - | - |
| 1777397143 | 18.89° C | 48% | 1015 hPa | 0 mm | - | - | - |
| 1777396542 | 18.89° C | 47% | 1015 hPa | 0 mm | - | - | - |
| 1777395941 | 18.33° C | 48% | 1015 hPa | 0 mm | - | - | - |
| 1777395338 | 18.33° C | 48% | 1015 hPa | 0 mm | - | - | - |
| 1777394737 | 18.33° C | 47% | 1015 hPa | 0 mm | - | - | - |
| 1777394137 | 17.78° C | 48% | 1015 hPa | 0 mm | - | - | - |
| 1777392935 | 17.78° C | 48% | 1016 hPa | 0 mm | - | - | - |
| 1777392333 | 17.78° C | 46% | 1016 hPa | 0 mm | - | - | - |
| 1777391732 | 17.78° C | 47% | 1016 hPa | 0 mm | - | - | - |
| 1777391131 | 17.22° C | 47% | 1016 hPa | 0 mm | - | - | - |
| 1777390530 | 17.22° C | 48% | 1016 hPa | 0 mm | - | - | - |
| 1777389929 | 15.56° C | 49% | 1017 hPa | 0 mm | - | - | - |
* Rain latest hour (hover to see other rain measurements)
** Current wind speed in m/s (hover to see current wind gust speed)